Regional Weather Roundup
Issued by NWS Wakefield, VA

Home | Current Version | Previous Version | Graphics & Text | Print | Product List | Glossary On
Versions: 1 2 3 4 5 6 7 8 9 10 11 12 13 14 15 16 17 18 19 20 21 22 23 24 25 26 27
000
ASUS41 KAKQ 021115
RWRAKQ

REGIONAL WEATHER ROUNDUP
NATIONAL WEATHER SERVICE WAKEFIELD VA
700 AM EDT MON MAY 02 2016

Note: "fair" indicates few or no clouds below 12,000 feet with no
significant weather and/or obstructions to visibility. * = Denotes
station may not report precipitation (e.g., rain,snow,etc.),
thunder or fog.

VAZ042-051-052>054-056-021200-
NORTHERN VIRGINIA

CITY           SKY/WX    TMP DP  RH WIND       PRES   REMARKS
WASH NATIONAL  DRIZZLE   55  54  96 CALM      29.96F FOG
DULLES         FOG       55  54  96 CALM      29.97R VSB 3/4
FORT BELVOIR   CLOUDY    55  54  94 VRB2      29.97R FOG
QUANTICO       CLOUDY    57  56  96 NE6       29.97S FOG
FREDERICKSBRG* CLOUDY    57  57 100 CALM      29.96R FOG
STAFFORD*      FOG       56  55  97 CALM      30.00R VSB 1/2
WARRENTON      FOG       57  53  87 CALM      29.96R VSB 3/4
CULPEPER*      FOG       57  57 100 CALM      29.97R VSB 3/4
MANASSAS*      LGT RAIN  55  55 100 CALM      29.96R FOG
LEESBURG*      FOG       55  55 100 N6        29.99R VSB 1/2
WINCHESTER     FOG       55  55 100 SE6       29.96R VSB 1/4
FRONT ROYAL*   CLOUDY    55  55 100 CALM      29.96R
LURAY*         FOG       57  57 100 CALM      29.96R VSB 3/4
$$

VAZ048-049-060>072-079>083-021200-
CENTRAL AND SOUTH CENTRAL VIRGINIA

CITY           SKY/WX    TMP DP  RH WIND       PRES   REMARKS
RICHMOND       CLOUDY    64  63  96 SW5       29.95R
CHESTERFIELD*  PTSUNNY   64  54  68 SW3       29.96R
PETERSBURG*    FAIR      66  66 100 S5        29.96R
HANOVER        CLOUDY    63  32  31 CALM      29.96R HAZE
TAPPAHANNOCK*  FOG       60  60 100 CALM      29.96R VSB<1/4
QUINTON*       CLOUDY    65  65 100 MISG      29.94R FOG
CHARLOTTSVILLE FOG       60  59  96 CALM      29.95R VSB 1/4
GORDONSVILLE*  CLOUDY    59  59 100 CALM      29.95S FOG
ORANGE*        CLOUDY    59  59 100 CALM      29.97R FOG
LOUISA*        FOG       63  63 100 CALM      29.94R VSB<1/4
BUMPASS*       CLOUDY    60  60 100 CALM      29.95R VSB 1/4
FARMVILLE*     FOG       64  64 100 CALM      29.95R VSB 1/4
CREWE*         CLOUDY    65  65 100 SW3       29.96R
FORT PICKETT*  NOT AVBL
CHASE CITY*    CLOUDY    65  63  94 CALM      29.98R
CLARKSVILLE*   CLOUDY    64  64 100 S6        29.97S
SOUTH HILL*    MOCLDY    61  61 100 S5        30.03R VSB 1
LAWRENCEVILLE* FAIR      63  63 100 SW3       29.97R
EMPORIA*       FAIR      63  63 100 CALM      29.99R
$$

VAZ088>098-021200-
SOUTHEAST VIRGINIA

CITY           SKY/WX    TMP DP  RH WIND       PRES   REMARKS
NORFOLK        FAIR      68  64  87 SW14      29.95S
VIRGINIA BEACH CLOUDY    71  65  81 SW13      29.95S
NORFOLK NAVAL  MOCLDY    68  66  93 SW10      29.96S
WEST POINT*    CLOUDY    66  65  97 SW5       29.96R
SALUDA*        CLOUDY    65  65 100 SW6       29.93S
NEWPORT NEWS   FAIR      67  65  93 SW10      29.95R
LANGLEY AFB    MOCLDY    66  66 100 SW8       29.94S
FORT EUSTIS    CLOUDY    67  67 100 S6        29.94R
WILLIAMSBURG*  FAIR      68  66  94 S3        29.96R
HR EXEC AP*      N/A     68  64  88 SW7       29.98S
FRANKLIN*      MOCLDY    67  65  93 S8        29.98R
US460-WAKEFLD  FAIR      67  64  90 S5        29.96R
$$

VAZ020-022-025-037-045-021200-
WEST CENTRAL AND SOUTHWEST VIRGINIA

CITY           SKY/WX    TMP DP  RH WIND       PRES   REMARKS
STAUNTON*      FAIR      55  55 100 CALM      29.98R FOG
WAYNESBORO*    FAIR      54  53  96 MISG      29.96S
HOT SPRINGS VA FOG       57  57 100 W17       30.02R VSB 1/2
LYNCHBURG      FOG       56  56 100 S5        29.98R VSB 1/4
DANVILLE       MOCLDY    64  63  96 SW8       29.98R
SOUTH BOSTON*  FAIR      64  63  94 CALM      29.97R
MARTINSVILLE   CLOUDY    63  62  97 SW6       30.02R
ROANOKE        FAIR      60  60 100 CALM      30.00R FOG
BLACKSBURG     FOG       56  56 100 SW3       30.06R VSB 1
DUBLIN*        FAIR      58  58 100 CALM      30.03R FOG
MARION*        CLOUDY    65  61  88 W12G20    30.07R
HILLSVILLE*    FAIR      60  59  97 W3        30.05R
RICHLANDS*     PTSUNNY   62  46  55 W7        30.05R
WISE*          CLOUDY    61  61 100 SW3       30.07R
ABINGDON*      CLOUDY    66  64  92 W8        30.05R
$$

MDZ021>025-VAZ099-100-021200-
SOUTHERN MARYLAND AND THE DELMARVA PENINSULA

CITY           SKY/WX    TMP DP  RH WIND       PRES   REMARKS
PATUXENT RIVER LGT RAIN  57  56  96 E6        29.96R VSB 1
BAY BRIDGE APT NOT AVBL
LEONARDTOWN    CLOUDY    55  54  94 CALM      29.97S VSB 1/4
DOVER          CLOUDY    52  52 100 E6        29.99R FOG
GEORGETOWN     FOG       50  50 100 SE7       29.99R VSB 3/4
EASTON         CLOUDY   N/A N/A N/A E5        30.02R FOG
CAMBRIDGE      CLOUDY    54  52  94 E5        29.97R
SALISBURY      CLOUDY    53  53 100 E8        29.97R FOG
OCEAN CITY     CLOUDY    52  52 100 E7        29.98S FOG
WALLOPS ISLAND FOG       54  53  97 NE9       29.97R VSB 1/2
ACCOMACK*      CLOUDY    61  52  72 CALM      29.94R HAZE
$$

NCZ012>017-030>032-021200-
NORTH CENTRAL AND EASTERN NORTH CAROLINA

CITY           SKY/WX    TMP DP  RH WIND       PRES   REMARKS
ROANOKE RAPIDS CLOUDY    66  64  94 SW5       29.99R
RALEIGH        CLOUDY    67  65  93 SW5       30.00R
ELIZABETH CITY CLOUDY    68  66  93 SW10      29.99R
AHOSKIE*       CLOUDY    66  65  96 CALM      29.99R
EDENTON*       CLOUDY    69  69 100 SW9       30.01R
CURRITUCK*     CLOUDY    68  68  99 SW6       30.00R
KILL DEVIL HLS CLOUDY    69  68  97 SW6       29.99R
MANTEO         NOT AVBL
CAPE HATTERAS  CLOUDY    68  67  96 SW7       30.03S
TARBORO*       CLOUDY    69  66  92 CALM      30.01R
GOLDSBORO      NOT AVBL
WASHINGTON     CLOUDY    68  67  96 S6        30.00R
GREENVILLE     CLOUDY    70  68  94 SW6       30.02R FOG
NEW BERN       CLOUDY    68  66  93 S7        30.03R
WILMINGTON     MOCLDY    70  69  97 S7        30.04R
$$

VAZ048-021200-
ELSEWHERE

CITY           SKY/WX    TMP DP  RH WIND       PRES   REMARKS
HARRISBURG PA  CLOUDY    51  49  92 SE7       29.94S FOG
BALTIMORE      DRZL/FOG  54  53  97 E8        29.96F VSB 1/4
ANNAPOLIS      CLOUDY    55  54  96 E9        29.96S FOG
ANDREWS AFB    FOG       54  54 100 E3        29.95F VSB 1
PHILADELPHIA   CLOUDY    49  45  86 SE6       30.01R
HENDERSON NC   CLOUDY   N/A N/A N/A SW7       29.99R HAZE
GREENSBORO     CLOUDY    65  64  97 SW6       30.00R
ROCKY MOUNT    CLOUDY    68  66  93 S7        30.00R
$$

VAZ100-021200-
MARINE

STATION/POSITION TIME  TEMP    WIND        PRES    WAVE   SWELL
                       AIR SEA DIR/SP/G            HT/PER HT/PER
                 (UTC) (F)     (DEG/KT/KT) (MB)    (FT/S) (FT/S)
BRANDYWINE LGT   1000   50     110/ 12/ 13 1015.2F
CAPE MAY NJ      1000   50 57   80/ 10/ 13 1014.7F
LEWES DE         1000   51 55   90/ 10/ 12 1014.9R
15NM E FENWICK I 1050   51 51              1014.8R   4/ 9
OCEAN-CITY-INLET 1000   52 54   80/  5/  7 1014.5R
WACHAPREAGUE VA  1000   58 59   CALM  /  1 1013.4F
THOMAS POINT MD  1100   54 57  110/  8/  8 1016.1R
GOOSES REEF MD   1100   56 57   80/  6/  8 1015.6R   1
COVE POINT MD    1000   55     110/  3/  3 1014.7R
SOLOMONS ISLAND  1000   57 59   90/  4/  6   N/A
BISHOPS HEAD MD  1000   57 58   90/  7/ 11 1013.2S
PINEY POINT MD   1000           40/  4/  4   N/A
POTOMAC MD       1100   58 58   30/ 10/ 12 1013.2R   1
CAMBRIDGE MD     1000   55 60   70/  8/  9 1013.5F
LEWISETTA VA     1000   58 59   80/  3/  3 1013.2R
RAPPAHANNOCK LGT 1000          170/ 16/ 17 1013.9F
STINGRAY PT      1100   65 60  250/  8/ 10 1014.2R   1/ 2
YORK RVR RNG VA  1000   65     220/ 14/ 15 1012.8F
YORKTOWN VA      1000   67 62  220/ 10/ 14 1013.1F
JAMESTOWN VA     1100   67 65  220/  4/  6   N/A     0
DOMINION TERM VA 1000   66     200/  8/  9 1014.1F
KIPTOPEKE VA     1000      60  180/  9/  9   N/A
CHES BAY BRIDGE  1000   67 60  180/ 10/ 12 1013.7F
CAPE HENRY VA    1000   67     200/  7/ 12   N/A
CHESAPEAKE LGHT  1000   63     200/ 15/ 15 1015.0F
WILLOUBY STN VA  1000   67     210/ 14/ 16 1014.8F
CAPE HENRY BUOY  1012      59                N/A     3/ 9   2/11
CAPE CHARLES BUO 1026      58                N/A     3/ 8   2/ 8
OFFSHORE WE BUOY 1021      54                N/A     3/ 9   3/ 9
64NM E OF VA BCH 1050   58 53  210/ 10/ 12 1015.3R   5/11   5/11
DUCK PIER NC     1000   69 66  210/ 10/ 13 1014.8F
44100 DUCK FRF   1024      58                N/A     3/11   2/11
44056 DUCK FRF   1011      58                N/A     3/ 5   2/11
OREGON INLET NC  1000   68 67  200/  9/ 10 1015.8R
HATTERAS NC      1000   69 68  200/  4/  7 1016.5R
DIAMOND SHLS NC  1050   74 73  220/ 12/ 16 1017.0R   4/ 5   3/10
CAPE LOOKOUT NC  1100   70     220/  8/ 12 1016.C1F1C2F2C3F3C4F4C5F5C6F6C7F7C8M1C9!



USA.gov is the U.S. government's official web portal to all federal, state and local government web resources and services.